{"data":{"norad_id":50488,"intl_designator":"2021-132V","name":"ONEWEB-0409","alt_names":[],"object_type":"PAYLOAD","status":"ACTIVE","operator":null,"country":"UK","launch_date":"2021-12-27","launch_site_code":"TYMSC","launch_vehicle":null,"mission":null,"orbit_class":"UNKNOWN","rcs_meters":null,"size_class":null,"mass_kg":null,"dimensions":null,"purposes":["comms"],"wikipedia_slug":null,"has_3d_model":false,"image_url":null,"decayed_at":null,"tle_current":{"epoch":"2026-09-20T02:10:10.356960Z","epoch_age_seconds":60992,"freshness":"FRESH","line1":"1 50488U 21132V   26263.09039765 -.00000211  00000+0 -62995-3 0  9991","line2":"2 50488  87.8974   2.1946 0001810 110.3830 249.7493 13.11418600228025","mean_motion":13.114186,"eccentricity":0.000181,"inclination_deg":87.8974,"raan_deg":2.1946,"arg_perigee_deg":110.383,"mean_anomaly_deg":249.7493,"bstar":-0.00062995,"rev_number":22802,"period_min":109.80475646754,"perigee_km":1216.301465587,"apogee_km":1219.0511500045,"semimajor_km":7595.8133077957,"source":"CELESTRAK","updated_at":"2026-09-20T09:00:44.703409Z"}}}